Weather in Oakville

Canada     43°26′54″N   79°39′58″W
temp.,
°C
wind,
m/s
gust,
m/s
humid.,
%
clouds,
%
prec.,
mm/h
press.,
hPa
HPBL,
m
11 april, sun
sun1123:00+13e1172100 0.0 100219
02:00+12ese2782100 0.0 1000186
05:00+11e2491100 0.7 999114
08:00+12e41298100 9.1 996424
11:00+12wsw1296100 4.0 998132
14:00+17sse246517 4.0 9971045
17:00+16ese457525 0.4 998430
20:00+12se1293100 1.2 1000183
12 april, mon
mon1223:00+11ene3897100 1.4 1000261
02:00+11ese2697100 2.6 999377
05:00+10sse1296100 0.2 1000308
08:00+10ene1194100 0.6 1002102
11:00+10ese2293100 1.1 1003335
14:00+9ene2291100 2.6 1005185
17:00+10e338872 0.1 1007341
20:00+8ene359599 0.1 1010258
13 april, tue
tue1323:00+7ene359495 0.0 1012296
02:00+7ene2591100 0.0 1013299
05:00+7ene2391100 0.0 1014227
08:00+7e1291100 0.1 1015179
11:00+7se1189100 0.1 1016205
14:00+12ese227323 0.1 1016543
17:00+13se346388 0.4 1015461
20:00+11ssw126699 1.1 101654
14 april, wed
wed1423:00+8s127627 0.0 101647
02:00+7se11818 0.0 101639
05:00+6ene0087100 0.0 101529
08:00+7ene0181100 0.0 101594
11:00+11sse2260100 0.0 1014545
14:00+12sw2357100 0.8 10121346
17:00+9wnw5675100 2.4 1012769
20:00+6nnw3384100 2.4 1012458
15 april, thu
thu1523:00+6nne3384100 0.1 1011376
02:00+5nw2289100 1.1 1009529
05:00+4wnw3394100 1.1 1008638
08:00+4wnw3595100 2.5 1008608
11:00+4wnw3595100 1.5 1007577
14:00+4wsw2394100 1.9 1007401
17:00+5ssw1184100 0.1 1008553
20:00+6sse0183100 0.1 1009206